Regional Weather Roundup
Issued by NWS

Home | Current Version | Previous Version | Text Only | Print | Product List | Glossary Off
Versions: 1 2 3 4 5 6 7 8 9 10 11 12 13 14 15 16 17 18 19 20 21 22 23 24 25 26 27 28 29 30 31 32 33 34 35 36 37 38 39 40 41 42 43 44 45 46 47 48 49 50

000
ASUS43 KLSX 301907
RWRMO
WEATHER SUMMARY FOR MISSOURI
NATIONAL WEATHER SERVICE SPRINGFIELD MO
200 PM CDT SUN APR 30 2017

NOTE: "FAIR" INDICATES FEW OR NO CLOUDS BELOW 12,000 FEET WITH NO
       SIGNIFICANT WEATHER AND/OR OBSTRUCTIONS TO VISIBILITY.
       CURRENT SKY AND/OR WEATHER CONDITIONS ARE NOT AVAILABLE FOR
       CHILLICOTHE AND FARMINGTON.

MOZ001>031-035>038-043-044-053-054-302000-
...NORTHERN AND WESTERN MISSOURI...

CITY           SKY/WX    TMP DP  RH WIND       PRES   REMARKS
KANSAS CTY INT LGT RAIN  52  50  93 SW9       29.50S VSB 1
KANSAS C DTWN  CLOUDY   N/A N/A N/A SW9       29.51R
LEE`S SUMMIT   CLOUDY    55  53  93 SW16G23   29.51R
ST JOSEPH      LGT RAIN  51  51 100 CALM      29.51R FOG
CHILLICOTHE      N/A     51  51 100 E8G16     29.50F
KIRKSVILLE     CLOUDY    49  31  49 E15G22    29.54S

$$
MOZ066>068-077>081-088>096-101>105-302000-
...SOUTHWEST MISSOURI...

CITY           SKY/WX    TMP DP  RH WIND       PRES   REMARKS
SPRINGFIELD    MOSUNNY   66  53  63 S23G33    29.52F
JOPLIN         PTSUNNY   58  47  66 S20G33    29.54S
BRANSON        PTSUNNY   66  50  55 S17G29    29.57S

$$
MOZ032>034-039>042-045>050-055>058-069>072-302000-
...CENTRAL MISSOURI...

CITY           SKY/WX    TMP DP  RH WIND       PRES   REMARKS
COLUMBIA       CLOUDY    67  65  93 SE16G25   29.49F
JEFFERSON CITY CLOUDY    72  65  78 SE18      29.48F
ROLLA          CLOUDY    70  32  24 SE18G30   29.49F
SEDALIA        CLOUDY    61  58  90 SW17G24   29.50F
WHITEMAN AFB   PTSUNNY   55  55 100 SW12G17   29.48F
OSAGE BEACH    CLOUDY    75  61  61 S16G23    29.47F

$$
MOZ051-052-059>065-302000-
...EAST CENTRAL MISSOURI...

CITY           SKY/WX    TMP DP  RH WIND       PRES   REMARKS
ST LOUIS INTL  LGT RAIN  68  64  87 SE17G29   29.60F
SPIRIT OF STL  CLOUDY    67  65  93 E13G18    29.57F
ST CHARLES     LGT RAIN  65  65 100 E17       29.59F

$$
MOZ072>076-082>087-097>100-106>115-302000-
...SOUTH CENTRAL AND SOUTHEAST MISSOURI...

CITY           SKY/WX    TMP DP  RH WIND       PRES   REMARKS
CAPE GIRARDEAU CLOUDY    69  65  86 SE7       29.66F
FARMINGTON     CLOUDY    69  66  90 SE13G23   29.61F
POPLAR BLUFF   CLOUDY    71  69  93 SE9       29.63F

$$




USA.gov is the U.S. government's official web portal to all federal, state and local government web resources and services.